Regional Weather Roundup
Issued by NWS Charleston, SC

Home | Current Version | Previous Version | Text Only | Print | Product List | Glossary On
Versions: 1 2 3 4 5 6 7 8 9 10 11 12 13 14 15 16 17 18 19 20 21 22 23 24 25 26 27 28 29 30 31 32 33 34 35 36 37 38 39 40 41 42 43 44 45 46 47 48 49 50
000
ASUS42 KCHS 291028
RWRCHS

REGIONAL WEATHER ROUNDUP
NATIONAL WEATHER SERVICE CHARLESTON SC
600 AM EDT THU SEP 29 2016

NOTE: "FAIR" INDICATES FEW OR NO CLOUDS BELOW 12,000 FEET WITH NO
SIGNIFICANT WEATHER AND/OR OBSTRUCTIONS TO VISIBILITY.

NOT ALL STATIONS ARE QUALITY CONTROLLED. USE DATA WITH CAUTION...
ESPECIALLY DEWPOINT OBSERVATIONS.

SCZ027-030-031-034>040-042>050-291100-
...SOUTHEAST SOUTH CAROLINA...

CITY           SKY/WX    TMP DP  RH WIND       PRES   REMARKS
N CHARLESTON   PTCLDY    75  72  90 S7        29.92S
WATERFRONT PRK   N/A     79  75  87 VRB3      29.91R
MOUNT PLEASANT FAIR      77  73  88 CALM      29.93S
JOHNS ISLAND   FAIR      77  75  94 CALM      29.93S
PINOPOLIS        N/A     75  75 100 VRB3      29.84S
MONCKS CORNER  FAIR      73  72  94 S3        29.93R
SUMMERVILLE    NOT AVBL
BEAUFORT MCAS  PTCLDY    75  72  90 SW6       29.92S
BEAUFORT ARPT  PTSUNNY   75  72  88 SW5       29.93S
HILTON HEAD IS NOT AVBL
WALTERBORO     MOSUNNY   73 N/A N/A S3        29.93S
ALLENDALE      FAIR      72  72 100 CALM      29.91S

...SOUTHERN MIDLANDS AND PEE DEE...

CITY           SKY/WX    TMP DP  RH WIND       PRES   REMARKS
GEORGETOWN     PTSUNNY   75  73  94 SW3       29.94S
KINGSTREE      PTSUNNY   73  72  94 SE5       29.92R
ORANGEBURG     CLEAR     71  70  96 S3        29.91R
BARNWELL       NOT AVBL
AIKEN          FAIR      68  66  94 CALM      29.94S
MANNING        FAIR      73  72  94 CALM      29.91S
COLUMBIA       CLEAR     72  69  90 CALM      29.89R
SUMTER         NOT AVBL
FLORENCE       CLOUDY    75  73  93 S3        29.91S
MYRTLE BEACH   PTCLDY    81  68  65 S9        29.95S
N MYRTLE BEACH PTCLDY    80  74  81 S8        29.93S

$$

GAZ063-065-086>088-099>101-113>116-118-119-134>141-150-291100-
...SOUTHEAST GEORGIA...

CITY           SKY/WX    TMP DP  RH WIND       PRES   REMARKS
SAVANNAH ARPT  MOCLDY    73  70  90 SW7       29.94R
HUNTER AAF     NOT AVBL
FORT STEWART   NOT AVBL
STATESBORO     CLEAR     73  73 100 CALM      29.93R
SYLVANIA       NOT AVBL
CLAXTON        FAIR      71  71 100 CALM      29.93S FOG

...CSRA...CENTRAL AND FAR SOUTHEAST GEORGIA...

CITY           SKY/WX    TMP DP  RH WIND       PRES   REMARKS
THOMSON        PTCLDY    65  64  96 CALM      29.96R
AUGUSTA-BUSH   CLOUDY    70  68  93 CALM      29.90R
AUGUSTA-DANIEL CLEAR     72  65  78 VRB3      29.91S
SWAINSBORO     FAIR      72  70  94 CALM      29.94R
VIDALIA        CLEAR     72  72 100 CALM      29.94S FOG
EASTMAN        FOG       71  71 100 CALM      29.97R VSB 1/2
HAZLEHURST     FAIR      73  73 100 CALM      29.93S
ALMA           PTCLDY    71  70  96 CALM      29.94S FOG
WAYCROSS       CLOUDY    75  75 100 SW6       29.95R
JESUP          CLOUDY    73  73 100 SW3       29.95R FOG
BAXLEY         FAIR      72  72 100 CALM      29.94S FOG
BRUNSWICK      MOCLDY    73  73 100 SW8       29.96R
SAINT SIMONS   PTCLDY    74  72  93 SW9       29.95R

$$

SCZ027-028-034-036>038-045-046-048>050-GAZ119-141-291100-
...LAKE AND SUPPLEMENTAL COASTAL OBSERVATIONS...

STATION/POSITION TIME  TEMP    WIND        PRES    WAVE   SWELL
                       AIR SEA DIR/SP/G            HT/PER HT/PER/DIR
                 (UTC) (F)     (DEG/KT/KT) (MB)    (FT/S) (FT/S/D)
WINYAH BAY       0930   78     210/  4     1013.0S
LAKE MURRAY      1020   74     260/  3/  7 1011.9
ACE BASIN NERRS  0945   76        CALM     1014.0R
FORT PULASKI     1000   75 81  220/  6/  9 1014.0
SAPELO ISLAND    1000   75     210/  8     1014.0

$$

ANZ835-935-AMZ111-154-330-350-352-354-370-450-454-472-291100-
...C-MAN AND BUOY OBSERVATIONS...

STATION/POSITION TIME  TEMP    WIND        PRES    WAVE   SWELL
                       AIR SEA DIR/SP/G            HT/PER HT/PER/DIR
                 (UTC) (F)     (DEG/KT/KT) (MB)    (FT/S) (FT/S/D)
BUOY 41004       0950   81 82  220/ 12/ 14 1013.3S   3/ 5   2/100/12
BUOY 41008       0950   79 82  220/ 16/ 17 1013.3F   3/ 4   2/ 50/ 7
FOLLY BEACH CMAN 1000   79     230/  8/ 10 1013.7R
CAPERS NEARSHORE 1008   81 81  230/ 12/ 16 1013.4R
FRIPP NEARSHORE  1008   78 81  230/ 14/ 17 1013.4F


STATION/POSITION TIME  TEMP    WIND        PRES    WAVE   SWELL
                       AIR SEA DIR/SP/G            HT/PER HT/PER/DIR
                 (UTC) (F)     (DEG/KT/KT) (MB)    (FT/S) (FT/S/D)
5E ST. MARYS GA  1001      82                N/A     2/12   2/100/12
FRYING PAN BUOY  1010   78 82  220/ 12/ 17 1014.0
BUOY 41025       0950   76 81   30/  8/ 12 1015.0F   3/ 7   3/100/ 7
CAPE LOOKOUT NC  1000   78     120/  4/  5 1014.7R
BUOY 41002       0950   80 83  180/ 12/ 16 1016.1R   4/ 5   2/ 70/11
BUOY 41010       NOT AVBL
ST AUGUSTINE FL  1000   72 83  220/  7/  8 1016.1R


$$




USA.gov is the U.S. government's official web portal to all federal, state and local government web resources and services.